Location: Newark
(7.0858°N, 171.3717°E)
Time: 02:47:52
(UTC+00:00)

Transit 4A - Pass Details

Date: 26 November 2020
Orbit: 864 x 980 km, 66.8° (Epoch: 20 January)

Event Time Altitude Azimuth Distance (km) Brightness Sun altitude
Rises 21:02:16 0° 241° (WSW) 3,561 10.7 33.4°
Reaches altitude 10° 21:06:15 10° 266° (W) 2,644 10.0 34.3°
Maximum altitude 21:09:07 13° 294° (WNW) 2,414 9.7 34.9°
Drops below altitude 10° 21:12:01 10° 322° (NW) 2,677 9.9 35.5°
Sets 21:16:08 0° 348° (NNW) 3,642 10.7 36.3°
